Voltar ao catálogo

STARLINK-32350

AtivoComunicaçõesVLEO
NORAD 61063·PAYLOAD·🇺🇸 United States

Lançado Sep 13, 2024 de Vandenberg Space Force Base

Loading…

Próximas Passagens (próximas 24 horas)

TLE

AtualizadoSource: CelesTrak SupGP

Época: Sep 15, 2026, 03:08 UTC

1 61063C 24164P   26258.13104167  .00005131  00000+0  16497-3 0  2586
2 61063  53.1591 289.8203 0001280  85.2452 183.6081 15.31704952    16

Acompanhe STARLINK-32350 em tempo real com AllMySat

Download on the App Store